Weather History for Santa Cruz, Brazil

Change the Weather History Date:

Friday, January 24, 2014

  Actual Average Record
Temperature  
Mean Temperature 86 °F -  
Max Temperature 98 °F 91 °F 98 °F (2014)
Min Temperature 75 °F 73 °F 64 °F (2008)
Cooling Degree Days 22    
Growing Degree Days 36 (Base 50)    
Moisture  
Dew Point 68 °F    
Average Humidity 60    
Maximum Humidity 83    
Minimum Humidity 34    
Precipitation  
Precipitation 0.00 in 0.20 in - ()
Sea Level Pressure  
Sea Level Pressure 29.84 in    
Wind  
Wind Speed 6 mph ()    
Max Wind Speed 16 mph    
Max Gust Speed -    
Visibility 6.2 miles    
Events Thunderstorm    
Averages and records for this station are not official NWS values.
T = Trace of Precipitation, MM = Missing Value Source: Averaged Metar Reports

Daily Weather History Graph

Daily Weather History Graph

Search for Another Location

Airport:

Trip Planner

Search our weather history database for the weather conditions in past years. The results will help you decide how hot, cold, wet, or windy it might be!

Date:

Astronomy

Jan. 24, 2014 Rise Set
Actual Time 6:29 AM BRST 7:44 PM BRST
Civil Twilight 6:04 AM BRST 8:08 PM BRST
Nautical Twilight 5:36 AM BRST 8:37 PM BRST
Astronomical Twilight 5:06 AM BRST 9:07 PM BRST
Moon 12:22 AM BRST (1/24) 1:33 PM BRST (1/24)
Length of Visible Light 14h 03m
Length of Day
13h 15m
Last Quarter, 46% of the Moon is Illuminated
Jan 24
Last Quarter
Jan 30
New
Feb 6
First Quarter
Feb 14
Full
Feb 22
Last Quarter

Hourly Weather History & Observations

Time (BRST) Temp. Heat Index Dew Point Humidity Pressure Visibility Wind Dir Wind Speed Gust Speed Precip Events Conditions
12:00 AM 78.8 °F - 69.8 °F 74% 29.89 in - NNE 3.5 mph - N/A   Clear
1:00 AM 77.0 °F - 68.0 °F 74% 29.89 in - NNE 4.6 mph - N/A   Clear
2:00 AM 77.0 °F - 68.0 °F 74% 29.86 in - NE 4.6 mph - N/A   Clear
3:00 AM 77.0 °F - 69.8 °F 78% 29.86 in - ENE 4.6 mph - N/A   Clear
4:00 AM 75.2 °F - 69.8 °F 83% 29.86 in - NNE 3.5 mph - N/A   Clear
5:00 AM 75.2 °F - 69.8 °F 83% 29.86 in - ENE 4.6 mph - N/A   Clear
6:00 AM 75.2 °F - 69.8 °F 83% 29.86 in - NE 5.8 mph - N/A   Clear
7:00 AM 75.2 °F - 68.0 °F 78% 29.83 in - NE 8.1 mph - N/A   Clear
8:00 AM 80.6 °F 83.2 °F 68.0 °F 65% 29.83 in - NNE 5.8 mph - N/A   Clear
9:00 AM 86.0 °F 87.3 °F 64.4 °F 48% 29.86 in - North 9.2 mph - N/A   Clear
10:00 AM 89.6 °F 92.2 °F 66.2 °F 46% 29.86 in - North 12.7 mph - N/A   Clear
11:00 AM 91.4 °F 95.4 °F 68.0 °F 46% 29.86 in - North 11.5 mph - N/A   Clear
12:00 PM 93.2 °F 96.2 °F 66.2 °F 41% 29.83 in - North 12.7 mph - N/A   Clear
1:00 PM 95.0 °F 98.5 °F 66.2 °F 39% 29.83 in 6.2 mi NNW 13.8 mph - N/A   Partly Cloudy
2:00 PM 98.6 °F 102.8 °F 66.2 °F 35% 29.80 in 6.2 mi North 11.5 mph - N/A   Partly Cloudy
3:00 PM 96.8 °F 101.8 °F 68.0 °F 39% 29.80 in 6.2 mi South 13.8 mph - N/A   Partly Cloudy
4:00 PM 96.8 °F 99.0 °F 64.4 °F 34% 29.80 in 6.2 mi South 10.4 mph - N/A   Partly Cloudy
6:00 PM 93.2 °F 97.7 °F 68.0 °F 44% 29.77 in 6.2 mi SSW 8.1 mph - N/A   Partly Cloudy
7:00 PM 91.4 °F 96.8 °F 69.8 °F 49% 29.77 in 6.2 mi South 8.1 mph - N/A Thunderstorm Thunderstorm
8:00 PM 86.0 °F 87.3 °F 64.4 °F 48% 29.83 in 6.2 mi WNW 16.1 mph - N/A Thunderstorm Thunderstorm
9:00 PM 80.6 °F 82.3 °F 64.4 °F 58% 29.83 in 6.2 mi NNW 5.8 mph - N/A Thunderstorm Thunderstorm
10:00 PM 77.0 °F - 69.8 °F 78% 29.83 in 6.2 mi NE 9.2 mph - N/A   Scattered Clouds
11:00 PM 77.0 °F - 68.0 °F 74% 29.83 in 6.2 mi NE 9.2 mph - N/A   Partly Cloudy